Погода Улан-Удэ

Поиск расширенной информации на нашем сайте:

Полезная информация:

Новости сайта



02.01.2020
Опубликован Долгосрочный прогноз погоды по городам России и ближнего зарубежья на январь 2020 года.
Карты: Прогноз на январь и февраль 2020 года, Сравнение прогнозируемой аномалии приземной температуры воздуха на январь 2020 года по разным моделям.




Погода Улан-Удэ - сегодня

Время (UTC), дата Ветер
(°,м/с) 
Видим.   Явления Облачность Т
(°С)
Тd
(°С)
f(%) Тe
(°С)
Pmin
(гПа)
dP
(гПа)
Po
(мм)
O2
(г/м3)
Тmin Tmax R s Состояние
почвы
21 23.11.20 300 (СЗ) 20000 м  слаб. ливневой снег  10/8 1000 м кучево-дожд., средняя 
[Cb cap|Ac und]
-0.2 -5.1 69 -2  1028.6  0.2  724  292           
00 24.11.20 360 (С) 20000 м  {ливн. осадки}  9/9 600 м кучево-дожд. 
[Cb cap]
-1.7 -8.4 60 -4  1030.7  1.7  725  295  -1.7    0.0  равномерный
сухой снег
100% 
03 24.11.20 320 (СЗ) 20000 м    9/9 600 м кучево-дожд. 
[Cb cap]
-2.6 -9.7 58 -5  1033.2  2.1  726  296  -3.4         
06 24.11.20 330 (СЗ) 20000 м  {ливн. осадки}  8/8 1000 м кучево-дожд. 
[Cb cap]
-2.9 -10.4 56 -5  1033.4  727  297           
09 24.11.20 250 (З) 20000 м    8/3 1000 м кучево-дожд., верхняя 
[Cb cap|Ci fib]
-5.3 -10.9 65 -7  1035.1  1.1  727  300           
12 24.11.20 240 (ЮЗ) 50000 м    10/9 1000 м кучево-дожд., верхняя 
[Cb cap|Ci fib]
-5.8 -11.5 64 -8  1036.7  1.3  728  301    -1.7  0.0     
15 24.11.20 230 (ЮЗ) 20000 м    10/9 1000 м кучево-дожд., верхняя 
[Cb cap|Ci fib]
-6.1 -10.6 70 -6  1038.1  1.2  729  302           
18 24.11.20 230 (ЮЗ) 20000 м    10/9 1000 м кучево-дожд., верхняя 
[Cb cap|Ci fib]
-7.1 -11.3 72 -9  1039.3  0.9  730  303           
21 24.11.20 250 (З) 20000 м    10/10 1000 м кучево-дожд. 
[Cb cap]
-7.7 -11.7 73 -7  1039.9  0.4  730  304           
00 25.11.20 260 (З) 20000 м    10/10 600 м кучево-дожд. 
[Cb cap]
-8.1 -12.2 72 -10  1040.6  0.6  731  304  -8.1      равномерный
сухой снег
100% 
03 25.11.20 230 (ЮЗ) 20000 м    10/9 1000 м кучево-дожд., верхняя 
[Cb cap|Ci fib]
-6.8 -11.4 70 -6  1040.9  0.6  731  303  -8.2         
06 25.11.20 240 (ЮЗ) 20000 м    10/8 1000 м средняя, верхняя 
[Sc|Ac trans|Ci fib]
-4.3 -13.5 49 -6  1039.9  -0.4  731  300           
09 25.11.20 330 (СЗ) 20000 м    10/6 1000 м средняя, верхняя 
[Sc|Ac trans|Ci fib]
-5.9 -14.2 52 -6  1040.2  -0.1  731  302           
12 25.11.20 280 (З) 20000 м  дым  10/8 1000 м средняя, верхняя 
[Sc|Ac trans|Ci fib]
-9.6 -13.6 73 -9  1042.2  731  307    -3.3       
15 25.11.20 260 (З) 20000 м  дым  10/6 1000 м средняя, верхняя 
[Sc|Ac trans|Ci fib]
-10.8 -14.4 75 -11  1042.8  0.3  732  308           
18 25.11.20 310 (СЗ) 20000 м    10/8 1000 м средняя, верхняя 
[Sc|Ac trans|Ci fib]
-10.6 -13.9 77 -10  1042.8  732  308           
21 25.11.20 090 (В) 20000 м    10/8 1000 м средняя, верхняя 
[Sc|Ac trans|Ci fib]
-13.2 -15.9 80 -17  1043.1  -0.3  731  311           
00 26.11.20 090 (В) 20000 м    4/3 1000 м верхняя 
[Sc|Ci fib]
-16.6 -19.1 81 -22  1045.1  0.9  732  316  -16.6      равномерный
сухой снег
100% 
03 26.11.20 100 (В) 20000 м  дым  10/0 средняя, верхняя 
[Ac trans|Ci fib]
-14.2 -17.8 74 -14  1045.6  1.1  733  313  -16.9         
06 26.11.20 270 (З) 20000 м  дым  8/0 верхняя 
[Ci fib]
-7.9 -13.3 65 -9  1043  -0.9  732  305           
09 26.11.20 250 (З) 20000 м  дым  4/0 верхняя 
[Ci sp]
-8.6 -13.4 68 -8  1043.8  0.5  733  306           
12 26.11.20 260 (З) 10 км  дым  ясно 
-12.3 -14.4 84 -12  1046.1  1.3  734  311    -7       
15 26.11.20 300 (СЗ) 10 км  дым  ясно 
-14.6 -16.2 88 -15  1047.1  0.4  734  314           
18 26.11.20 280 (З) 20000 м  дым  3/0 верхняя 
[Ci sp]
-16.2 -18 86 -16  1048.3  0.4  735  316           
21 26.11.20 290 (З) 20000 м  дым  9/0 средняя 
[Ac trans]
-15.6 -17.5 85 -18  1048  0.1  734  315           
Время (UTC), дата Ветер
(°,м/с) 
Видим.   Явления Облачность Т
(°С)
Тd
(°С)
f(%) Тe
(°С)
Pmin
(гПа)
dP
(гПа)
Po
(мм)
O2
(г/м3)
Тmin Tmax R s Состояние
почвы

Для получения пояснительной информации подведите курсор к названию столбца.

ПОГОДА Улан-Удэ - архив

Всё, что Вы хотите узнать о погоде Улан-Удэ - удобно и подробно!

Выберите нужную дату (начиная с 1 января 2019* года) и нажмите кнопку "Найти".
Будут отображены архивные сводки погоды по пункту Улан-Удэ, начиная с указанной даты.


Отображать данные в формате CSV (для использования в таблицах Excel)


Внимание! Наш архив погоды предназначен исключительно для личного некоммерческого использования в познавательных целях. Если Вам необходимы официальные справки о состоянии погоды (для производственных, юридических, коммерческих и т.п. целей), обращайтесь в органы Росгидромета.

*Примечание: данная дата относится к архиву по метеостанциям СССР (Россия, СНГ, Балтия).
Архив по метеостанциям Зарубежной Европы и Азии (кроме Китая) хранится 10 дней, по другим регионам земного шара (Китай, Африка, Америка, Австралия, Океания) - 1 день.

Улан-Удэ - район местоположения метеостанции


Название, широта, долгота, высота метеостанции:
Улан-Удэ (город) 51.8°ш. 107.5°д. 530 м над ур. моря [Российская Федерация]

Дополнительная информация

В oтличие oт бoльшинства пoгoдных сайтoв мы публикуем пoдрoбную метеoинфoрмацию в детальнoм прoфессиoнальнoм фoрмате.

Характеристики температуры и влажнoсти вoздуха измеряются на высoте 2 м в тени вдали oт зданий и деревьев.
Скoрoсть ветра измеряется на высoте 10 м (на урoвне рoста челoвека скoрoсть ветра ниже в 1.5-2 раза). Если метеoстанция нахoдится в гoрoде или в лесу, тo скoрoсть ветра занижена на 2-4 м/с пo сравнению с oткрытым местoм. Скoрoсть ветра над акватoриями крупных рек и oзёр, а также на вершинах хoлмoв на 2-5 м/с выше, чем в oбычных услoвиях.
Атмoсфернoе давление в разных тoчках местнoсти мoжет значительнo oтличаться oт давления на метеoстанции, в зависимoсти oт услoвий рельефа (при пoдъёме на 10 м давление пoнижается примернo на 1 мм рт.ст.).